Weather History for Istanbul, Turkey

Change the Weather History Date:

Tuesday, April 1, 2014

  Actual Average Record
Temperature  
Mean Temperature 50 °F -  
Max Temperature 58 °F 59 °F 71 °F (2013)
Min Temperature 41 °F 45 °F 37 °F (1998)
Degree Days  
Heating Degree Days 16    
Moisture  
Dew Point 44 °F    
Average Humidity 73    
Maximum Humidity 93    
Minimum Humidity 50    
Precipitation  
Precipitation 0.00 in - - ()
Sea Level Pressure  
Sea Level Pressure 29.85 in    
Wind  
Wind Speed 3 mph ()    
Max Wind Speed 13 mph    
Max Gust Speed -    
Visibility 5.8 miles    
Events      
Averages and records for this station are not official NWS values.
T = Trace of Precipitation, MM = Missing Value Source: Averaged Metar Reports

Daily Weather History Graph

Daily Weather History Graph

Search for Another Location

Airport:

Trip Planner

Search our weather history database for the weather conditions in past years. The results will help you decide how hot, cold, wet, or windy it might be!

Date:

Astronomy

Apr. 01, 2014 Rise Set
Actual Time 6:48 AM EEST 7:29 PM EEST
Civil Twilight 6:20 AM EEST 7:57 PM EEST
Nautical Twilight 5:48 AM EEST 8:29 PM EEST
Astronomical Twilight 5:14 AM EEST 9:03 PM EEST
Moon 7:37 AM EEST (4/1) 9:32 PM EEST (4/1)
Length of Visible Light 13h 36m
Length of Day
12h 40m
Waxing Crescent, 3% of the Moon is Illuminated
Apr 1
Waxing Crescent
Apr 7
First Quarter
Apr 15
Full
Apr 22
Last Quarter
Apr 29
New

Hourly Weather History & Observations

Time (EEST) Temp. Dew Point Humidity Pressure Visibility Wind Dir Wind Speed Gust Speed Precip Events Conditions
12:00 AM 48 °F 39 °F 61% 29.89 in 6 mi SW 2.3 mph - -  
12:20 AM 46.4 °F 39.2 °F 76% 29.89 in - Calm Calm - N/A   Clear
12:50 AM 46.4 °F 41.0 °F 81% 29.89 in - Variable 1.2 mph - N/A   Clear
1:20 AM 46.4 °F 41.0 °F 81% 29.89 in - Calm Calm - N/A   Clear
1:50 AM 48.2 °F 41.0 °F 76% 29.89 in - Variable 1.2 mph - N/A   Clear
2:20 AM 44.6 °F 39.2 °F 81% 29.86 in - Variable 1.2 mph - N/A   Clear
2:50 AM 46.4 °F 41.0 °F 81% 29.86 in - Calm Calm - N/A   Clear
3:00 AM 46 °F 41 °F 78% 29.88 in 6 mi Calm Calm - -  
3:20 AM 44.6 °F 42.8 °F 93% 29.86 in - Calm Calm - N/A   Clear
3:50 AM 44.6 °F 41.0 °F 87% 29.86 in - Calm Calm - N/A   Clear
4:20 AM 44.6 °F 42.8 °F 93% 29.86 in - Calm Calm - N/A   Clear
4:50 AM 42.8 °F 41.0 °F 93% 29.86 in - Calm Calm - N/A   Clear
5:20 AM 44.6 °F 42.8 °F 93% 29.86 in 4.3 mi Calm Calm - N/A   Unknown
5:50 AM 44.6 °F 41.0 °F 87% 29.83 in 4.3 mi Calm Calm - N/A   Unknown
6:00 AM 44 °F 42 °F 89% 29.86 in 4 mi Calm Calm - -   Mist
6:20 AM 46.4 °F 42.8 °F 87% 29.83 in 4.3 mi Calm Calm - N/A   Unknown
6:50 AM 46.4 °F 44.6 °F 93% 29.83 in 4.3 mi Calm Calm - N/A   Unknown
7:20 AM 48.2 °F 44.6 °F 87% 29.83 in 4.3 mi SW 2.3 mph - N/A   Unknown
7:50 AM 50.0 °F 44.6 °F 82% 29.86 in - WSW 1.2 mph - N/A   Clear
8:20 AM 51.8 °F 44.6 °F 76% 29.86 in - SSW 10.4 mph - N/A   Clear
8:50 AM 51.8 °F 44.6 °F 76% 29.86 in - SSW 9.2 mph - N/A   Clear
9:00 AM 52 °F 45 °F 68% 29.86 in 6 mi SSW 9.2 mph - -  
9:20 AM 51.8 °F 46.4 °F 82% 29.86 in - South 6.9 mph - N/A   Clear
9:50 AM 53.6 °F 44.6 °F 72% 29.86 in - SSW 8.1 mph - N/A   Clear
10:20 AM 55.4 °F 44.6 °F 67% 29.86 in 6.2 mi SSW 9.2 mph - N/A   Scattered Clouds
10:50 AM 55.4 °F 42.8 °F 63% 29.86 in 6.2 mi SSW 8.1 mph - N/A   Scattered Clouds
11:20 AM 55.4 °F 42.8 °F 63% 29.86 in 6.2 mi SW 9.2 mph - N/A   Scattered Clouds
11:50 AM 55.4 °F 42.8 °F 63% 29.86 in 6.2 mi SW 10.4 mph - N/A   Scattered Clouds
12:00 PM 55 °F 45 °F 59% 29.88 in 6 mi SW 10.4 mph - -   Scattered Clouds
12:20 PM 55.4 °F 42.8 °F 63% 29.86 in - SW 9.2 mph - N/A   Clear
12:50 PM 53.6 °F 42.8 °F 67% 29.86 in - SW 9.2 mph - N/A   Clear
1:20 PM 55.4 °F 46.4 °F 72% 29.86 in 6.2 mi SW 9.2 mph - N/A   Scattered Clouds
1:50 PM 57.2 °F 44.6 °F 63% 29.86 in - WSW 10.4 mph - N/A   Clear
2:20 PM 57.2 °F 46.4 °F 67% 29.86 in - SW 6.9 mph - N/A   Clear
2:50 PM 55.4 °F 44.6 °F 67% 29.83 in - SW 12.7 mph - N/A   Clear
3:00 PM 56 °F 45 °F 56% 29.85 in 6 mi SW 12.7 mph - -   Scattered Clouds
3:20 PM 57.2 °F 42.8 °F 59% 29.83 in - SW 6.9 mph - N/A   Clear
3:50 PM 57.2 °F 41.0 °F 55% 29.83 in - SW 9.2 mph - N/A   Clear
4:20 PM 57.2 °F 41.0 °F 55% 29.83 in - SW 3.5 mph - N/A   Clear
4:50 PM 59.0 °F 41.0 °F 51% 29.80 in - SW 5.8 mph - N/A   Clear
5:20 PM 57.2 °F 42.8 °F 59% 29.80 in - SW 9.2 mph - N/A   Clear
5:50 PM 57.2 °F 44.6 °F 63% 29.80 in - Variable 1.2 mph - N/A   Clear
6:00 PM 57 °F 44 °F 50% 29.83 in 6 mi SW 1.2 mph - -  
6:20 PM 55.4 °F 44.6 °F 67% 29.80 in - Calm Calm - N/A   Clear
6:50 PM 55.4 °F 44.6 °F 67% 29.80 in - Calm Calm - N/A   Clear
7:20 PM 53.6 °F 46.4 °F 77% 29.83 in - Calm Calm - N/A   Clear
7:50 PM 53.6 °F 46.4 °F 77% 29.83 in - Calm Calm - N/A   Clear
8:20 PM 55.4 °F 46.4 °F 72% 29.83 in - Calm Calm - N/A   Clear
8:50 PM 53.6 °F 46.4 °F 77% 29.86 in - Calm Calm - N/A   Clear
9:00 PM 54 °F 47 °F 70% 29.87 in 12 mi Calm Calm - -  
9:20 PM 55.4 °F 48.2 °F 77% 29.86 in - Calm Calm - N/A   Clear
9:50 PM 55.4 °F 48.2 °F 77% 29.86 in - Calm Calm - N/A   Clear
10:20 PM 53.6 °F 46.4 °F 77% 29.86 in - Calm Calm - N/A   Clear
10:50 PM 53.6 °F 46.4 °F 77% 29.86 in - SSE 3.5 mph - N/A   Clear
11:20 PM 53.6 °F 46.4 °F 77% 29.86 in - Variable 2.3 mph - N/A   Clear
11:50 PM 53.6 °F 46.4 °F 77% 29.86 in - Variable 2.3 mph - N/A   Clear